When you browse on this site, cookies collect data to enhance your experience and personalize the content and advertising you see.
Visit our Privacy Policy to learn more. By continuing to use the site, you agree to this use of cookies and data.
  • în România
  • Lista ţărilor
  • Pe 7 zile
  • Temperatura apei
  • Hartă satelitară
  • Meteo pe hartă
  • Widget-uri
  • user-avatar
    Intrare

    Meteo pe oră la Larne

    Astăzi, 23 Ianuarie, Miercuri

    Timp Temperatura Precipitaţii Vânt Presiune Umiditate
    00:00 -1°C° 0.1 mm 6 m/s 746 mmHg 78%
    01:00 -1°C° 0 mm 6 m/s 746 mmHg 77%
    02:00 -1°C° 0 mm 6 m/s 746 mmHg 77%
    03:00 -1°C° 0 mm 6 m/s 747 mmHg 77%
    04:00 -1°C° 0 mm 6 m/s 747 mmHg 78%
    05:00 0°C° 0 mm 5 m/s 747 mmHg 78%
    06:00 0°C° 0 mm 5 m/s 748 mmHg 79%
    07:00 0°C° 0 mm 5 m/s 748 mmHg 81%
    08:00 0°C° 0 mm 4 m/s 748 mmHg 82%
    09:00 0°C° 0 mm 4 m/s 749 mmHg 84%
    10:00 +1°C° 0 mm 4 m/s 749 mmHg 82%
    11:00 +3°C° 0 mm 4 m/s 749 mmHg 81%
    12:00 +3°C° 0 mm 5 m/s 749 mmHg 79%
    13:00 +3°C° 0.1 mm 5 m/s 749 mmHg 81%
    14:00 +3°C° 0.1 mm 5 m/s 749 mmHg 82%
    15:00 +3°C° 0.1 mm 5 m/s 749 mmHg 83%
    16:00 +3°C° 0.1 mm 5 m/s 749 mmHg 86%
    17:00 +4°C° 0.1 mm 4 m/s 750 mmHg 89%
    18:00 +3°C° 0.1 mm 4 m/s 750 mmHg 91%
    19:00 +3°C° 0 mm 4 m/s 750 mmHg 92%
    20:00 +2°C° 0 mm 5 m/s 750 mmHg 93%
    21:00 +1°C° 0 mm 5 m/s 751 mmHg 94%
    22:00 +1°C° 0 mm 5 m/s 751 mmHg 94%
    23:00 +2°C° 0 mm 5 m/s 751 mmHg 95%

    Mâine, 24 Ianuarie, Joi

    Timp Temperatura Precipitaţii Vânt Presiune Umiditate
    00:00 +2°C° 0 mm 5 m/s 751 mmHg 95%
    01:00 +2°C° 0.1 mm 5 m/s 751 mmHg 94%
    02:00 +2°C° 0.1 mm 5 m/s 752 mmHg 92%
    03:00 +2°C° 0.1 mm 6 m/s 752 mmHg 91%
    04:00 +2°C° 0 mm 6 m/s 752 mmHg 88%
    05:00 +2°C° 0 mm 6 m/s 753 mmHg 86%
    06:00 +2°C° 0 mm 6 m/s 753 mmHg 84%
    07:00 +2°C° 0 mm 5 m/s 754 mmHg 84%
    08:00 +3°C° 0 mm 4 m/s 754 mmHg 84%
    09:00 +3°C° 0 mm 4 m/s 754 mmHg 84%
    10:00 +4°C° 0.1 mm 3 m/s 755 mmHg 85%
    11:00 +5°C° 0.1 mm 2 m/s 755 mmHg 87%
    12:00 +6°C° 0.1 mm 1 m/s 755 mmHg 88%
    13:00 +6°C° 0.3 mm 1 m/s 755 mmHg 90%
    14:00 +6°C° 0.3 mm 1 m/s 755 mmHg 92%
    15:00 +5°C° 0.3 mm 0 m/s 755 mmHg 94%
    16:00 +5°C° 0.3 mm 1 m/s 755 mmHg 94%
    17:00 +4°C° 0.3 mm 2 m/s 755 mmHg 94%
    18:00 +3°C° 0.3 mm 3 m/s 755 mmHg 93%
    19:00 +4°C° 0.3 mm 3 m/s 756 mmHg 94%
    20:00 +4°C° 0.3 mm 4 m/s 756 mmHg 95%
    21:00 +4°C° 0.3 mm 4 m/s 756 mmHg 96%
    22:00 +5°C° 0.1 mm 3 m/s 756 mmHg 97%
    23:00 +7°C° 0.1 mm 3 m/s 756 mmHg 97%

    Poimâine, 25 Ianuarie, Vineri

    Timp Temperatura Precipitaţii Vânt Presiune Umiditate
    00:00 +8°C° 0.1 mm 3 m/s 756 mmHg 97%
    01:00 +7°C° 0.4 mm 4 m/s 756 mmHg 97%
    02:00 +8°C° 0.4 mm 4 m/s 756 mmHg 97%
    03:00 +8°C° 0.4 mm 5 m/s 756 mmHg 96%
    04:00 +8°C° 0.1 mm 5 m/s 756 mmHg 96%
    05:00 +8°C° 0.1 mm 5 m/s 756 mmHg 96%
    06:00 +8°C° 0.1 mm 6 m/s 756 mmHg 95%
    07:00 +8°C° 0 mm 5 m/s 756 mmHg 95%
    08:00 +8°C° 0 mm 5 m/s 756 mmHg 96%
    09:00 +8°C° 0 mm 5 m/s 756 mmHg 96%
    10:00 +8°C° 0 mm 5 m/s 757 mmHg 95%
    11:00 +9°C° 0 mm 6 m/s 757 mmHg 94%
    12:00 +9°C° 0 mm 6 m/s 757 mmHg 93%
    13:00 +9°C° 0 mm 7 m/s 756 mmHg 92%
    14:00 +9°C° 0 mm 7 m/s 756 mmHg 92%
    15:00 +9°C° 0 mm 7 m/s 755 mmHg 91%
    16:00 +9°C° 0 mm 7 m/s 754 mmHg 91%
    17:00 +9°C° 0 mm 8 m/s 753 mmHg 91%
    18:00 +9°C° 0 mm 8 m/s 753 mmHg 91%
    19:00 +9°C° 0.2 mm 8 m/s 752 mmHg 92%
    20:00 +9°C° 0.2 mm 8 m/s 751 mmHg 92%
    21:00 +9°C° 0.2 mm 8 m/s 750 mmHg 92%
    22:00 +9°C° 1.1 mm 8 m/s 750 mmHg 93%
    23:00 +7°C° 1.1 mm 8 m/s 749 mmHg 94%

    26 Ianuarie, Sâmbătă

    Timp Temperatura Precipitaţii Vânt Presiune Umiditate
    00:00 +8°C° 1.1 mm 7 m/s 748 mmHg 94%
    01:00 +6°C° 1.3 mm 8 m/s 748 mmHg 90%
    02:00 +5°C° 1.3 mm 9 m/s 748 mmHg 87%
    03:00 +3°C° 1.3 mm 10 m/s 748 mmHg 83%
    04:00 +2°C° 0 mm 10 m/s 749 mmHg 80%
    05:00 +2°C° 0 mm 10 m/s 749 mmHg 78%
    06:00 +1°C° 0 mm 11 m/s 749 mmHg 75%
    07:00 +1°C° 0.1 mm 11 m/s 750 mmHg 76%
    08:00 +2°C° 0.1 mm 11 m/s 750 mmHg 76%
    09:00 +2°C° 0.1 mm 11 m/s 751 mmHg 77%
    10:00 +2°C° 0.2 mm 11 m/s 751 mmHg 75%
    11:00 +2°C° 0.2 mm 12 m/s 751 mmHg 74%
    12:00 +2°C° 0.2 mm 12 m/s 751 mmHg 72%
    13:00 +1°C° 0.2 mm 13 m/s 752 mmHg 71%
    14:00 +1°C° 0.2 mm 13 m/s 752 mmHg 70%
    15:00 0°C° 0.2 mm 14 m/s 752 mmHg 69%
    16:00 0°C° 0.2 mm 14 m/s 753 mmHg 68%
    17:00 0°C° 0.2 mm 14 m/s 753 mmHg 67%
    18:00 0°C° 0.2 mm 14 m/s 753 mmHg 67%
    19:00 0°C° 0.2 mm 14 m/s 754 mmHg 66%
    20:00 0°C° 0.2 mm 14 m/s 754 mmHg 66%
    21:00 0°C° 0.2 mm 14 m/s 754 mmHg 66%
    22:00 0°C° 0.1 mm 14 m/s 754 mmHg 66%
    23:00 0°C° 0.1 mm 15 m/s 755 mmHg 67%

    27 Ianuarie, Duminică

    Timp Temperatura Precipitaţii Vânt Presiune Umiditate
    00:00 0°C° 0.1 mm 15 m/s 755 mmHg 67%
    01:00 0°C° 0 mm 15 m/s 755 mmHg 68%
    02:00 0°C° 0 mm 15 m/s 755 mmHg 68%
    03:00 0°C° 0 mm 15 m/s 755 mmHg 69%
    04:00 0°C° 0 mm 14 m/s 756 mmHg 69%
    05:00 0°C° 0 mm 14 m/s 756 mmHg 68%
    06:00 0°C° 0 mm 14 m/s 756 mmHg 68%
    07:00 0°C° 0 mm 14 m/s 757 mmHg 68%
    08:00 0°C° 0 mm 14 m/s 757 mmHg 68%
    09:00 0°C° 0 mm 14 m/s 757 mmHg 68%
    10:00 0°C° 0 mm 14 m/s 758 mmHg 67%
    11:00 0°C° 0 mm 13 m/s 758 mmHg 67%
    12:00 0°C° 0 mm 13 m/s 759 mmHg 66%
    13:00 0°C° 0 mm 13 m/s 759 mmHg 66%
    14:00 0°C° 0 mm 12 m/s 759 mmHg 66%
    15:00 0°C° 0 mm 12 m/s 759 mmHg 66%
    16:00 0°C° 0 mm 12 m/s 760 mmHg 67%
    17:00 +1°C° 0 mm 11 m/s 760 mmHg 67%
    18:00 +1°C° 0 mm 11 m/s 760 mmHg 68%
    19:00 +1°C° 0 mm 11 m/s 761 mmHg 69%
    20:00 +1°C° 0 mm 10 m/s 761 mmHg 69%
    21:00 0°C° 0 mm 10 m/s 761 mmHg 69%
    22:00 0°C° 0 mm 10 m/s 762 mmHg 71%
    23:00 0°C° 0 mm 10 m/s 762 mmHg 72%

    28 Ianuarie, Luni

    Timp Temperatura Precipitaţii Vânt Presiune Umiditate
    00:00 0°C° 0 mm 9 m/s 762 mmHg 73%
    01:00 0°C° 0 mm 9 m/s 762 mmHg 73%
    02:00 0°C° 0 mm 8 m/s 762 mmHg 74%
    03:00 0°C° 0 mm 8 m/s 762 mmHg 75%
    04:00 0°C° 0 mm 7 m/s 763 mmHg 75%
    05:00 +2°C° 0 mm 7 m/s 763 mmHg 75%
    06:00 +2°C° 0 mm 6 m/s 763 mmHg 74%
    07:00 +2°C° 0 mm 6 m/s 763 mmHg 75%
    08:00 +2°C° 0 mm 5 m/s 763 mmHg 76%
    09:00 +3°C° 0 mm 4 m/s 764 mmHg 77%
    10:00 +3°C° 0 mm 3 m/s 764 mmHg 76%
    11:00 +4°C° 0 mm 3 m/s 764 mmHg 75%
    12:00 +5°C° 0 mm 2 m/s 764 mmHg 73%
    13:00 +5°C° 0 mm 2 m/s 763 mmHg 76%
    14:00 +5°C° 0 mm 2 m/s 763 mmHg 79%
    15:00 +5°C° 0 mm 2 m/s 763 mmHg 82%
    16:00 +4°C° 0.3 mm 3 m/s 763 mmHg 85%
    17:00 +4°C° 0.3 mm 4 m/s 763 mmHg 87%
    18:00 +4°C° 0.3 mm 4 m/s 762 mmHg 90%
    19:00 +4°C° 0.4 mm 4 m/s 762 mmHg 92%
    20:00 +3°C° 0.4 mm 5 m/s 762 mmHg 94%
    21:00 +3°C° 0.4 mm 5 m/s 762 mmHg 95%
    22:00 +3°C° 0.1 mm 5 m/s 762 mmHg 96%
    23:00 +4°C° 0.1 mm 4 m/s 762 mmHg 96%
    Arată mai mult